Tracking 30061 objects as of 9-Dec-2024
HD Live streaming from Space Station
objects crossing your sky now

COSMOS 729

Track COSMOS 729 now!
10-day predictions
COSMOS 729 is classified as:


NORAD ID: 7768
Int'l Code: 1975-034A
Perigee: 977.9 km
Apogee: 1,010.0 km
Inclination: 83.0 °
Period: 104.8 minutes
Semi major axis: 7364 km
RCS: 1.6998 m2 (large)
Launch date: April 22, 1975
Source: Commonwealth of Independent States (former USSR) (CIS)
Launch site: PLESETSK MISSILE AND SPACE COMPLEX (PKMTR)
Your satellite tracking list
Your tracking list is empty




NASA's NSSDC Master Catalog

Two Line Element Set (TLE):
1  7768U 75034A   24343.82991050  .00000104  00000-0  95229-4 0  9993
2  7768  82.9633 179.5135 0021785 270.0484 100.7863 13.73572778487127
Source of the keplerian elements: AFSPC